This is the latest recevied weather packets stored in our database for station/object OK1VCF-8. If no packets are shown the sender has not sent any weather packets the latest 10 day(s).
| Time | Temp. | Humidity | Pressure | Rain* | Wind** | Luminosity | Snow |
|---|---|---|---|---|---|---|---|
| 1777590301 | 6.67° C | 62% | 1030.4 hPa | - | - | - | - |
| 1777589863 | 6.67° C | 62% | 1030.4 hPa | - | - | - | - |
| 1777589426 | 6.67° C | 62% | 1030.4 hPa | - | - | - | - |
| 1777588989 | 6.67° C | 61% | 1030.4 hPa | - | - | - | - |
| 1777588551 | 6.67° C | 62% | 1030.4 hPa | - | - | - | - |
| 1777588113 | 6.67° C | 62% | 1030.4 hPa | - | - | - | - |
| 1777587675 | 7.22° C | 61% | 1030.4 hPa | - | - | - | - |
| 1777587236 | 7.78° C | 61% | 1030.6 hPa | - | - | - | - |
| 1777586797 | 7.22° C | 62% | 1030.4 hPa | - | - | - | - |
| 1777586360 | 7.22° C | 62% | 1030.4 hPa | - | - | - | - |
| 1777585922 | 6.67° C | 62% | 1030.5 hPa | - | - | - | - |
| 1777585483 | 6.67° C | 63% | 1031.2 hPa | - | - | - | - |
| 1777585045 | 7.78° C | 60% | 1030.4 hPa | - | - | - | - |
| 1777584608 | 7.78° C | 58% | 1030.5 hPa | - | - | - | - |
| 1777584006 | 7.78° C | 59% | 1030.4 hPa | - | - | - | - |
| 1777583569 | 7.78° C | 58% | 1030.4 hPa | - | - | - | - |
| 1777583130 | 8.33° C | 56% | 1030.4 hPa | - | - | - | - |
| 1777582693 | 8.89° C | 56% | 1030.4 hPa | - | - | - | - |
| 1777582255 | 8.89° C | 54% | 1030.4 hPa | - | - | - | - |
| 1777581816 | 9.44° C | 52% | 1030.5 hPa | - | - | - | - |
| 1777581379 | 10° C | 52% | 1030.4 hPa | - | - | - | - |
| 1777580941 | 10° C | 52% | 1030.4 hPa | - | - | - | - |
| 1777580503 | 8.89° C | 53% | 1030.4 hPa | - | - | - | - |
| 1777580065 | 10° C | 52% | 1030.3 hPa | - | - | - | - |
| 1777579628 | 10° C | 50% | 1030.2 hPa | - | - | - | - |
* Rain since midnight (hover to see other rain measurements)
** Current wind speed in m/s (hover to see current wind gust speed)